SCP
0 0 0 0 0 0 0 0 0 -0 -0 -0 -0 0 0 0 0 0 0 0 0 0 -0 0 0 0 -0 -0 0 0 0 0 0 0 0 0 0 0 0 0 0 0 0
0 0 0 0 0 0 0 0 -0 -0 -0 -0 0 0 0 0 0 0 -0 0 -0 -0 -0 0 0 0 0 -0 -0 0 0 0 0 0 -0 0 0 0 0 0 0 0 0
0 0 0 0 0 0 0 -0 -0 -0 0 0 0 -0 -0 -0 -0 -0 -0 -0 -0 -0 -0 -0 0 0 0 -0 -0 -0 -0 0 0 0 0 0 0 0 0 0 0 0 0
0 0 0 0 0 0 0 0 -0 -0 -0 -0 -0 -0 -0 -0 -0 -0 -0 -0 -0 -0 -0 -0 -0 -0 -0 -0 -0 -0 0 0 0 0 0 0 0 0 0 0 0 0 0
0 0 0 0 0 0 0 0 0 -0 -0 -0 -0 -0 -0 -0 -0 -0 -0 -0 -0 -0 -0 -0 -0 -0 -0 -0 -0 -0 0 0 0 0 0 0 0 0 0 0 0 0 0
0 0 0 0 0 0 0 0 0 0 -0 -0 -0 -0 -0 0 -0 -0 -0 -0 -0 -0 -0 -0 -0 -0 -0 -0 -0 -0 0 0 0 0 0 0 0 0 0 0 0 0 0
0 0 0 0 0 0 0 0 0 0 0 -0 -0 -0 0 0 0 -0 -1 -1 -0 -0 -0 -0 -0 -0 -0 -0 -0 -0 0 0 0 1 0 0 0 0 0 0 0 0 0
0 0 0 0 0 0 0 0 0 0 0 0 -0 -0 0 0 0 -0 -0 -0 -0 -1 -0 -0 -0 -0 0 0 0 0 0 0 0 0 1 1 1 0 0 0 0 0 0
1 0 0 1 1 0 0 0 0 0 0 0 0 -0 -0 0 0 0 0 0 -0 -0 -0 -0 -0 0 0 1 1 1 1 1 1 0 0 0 0 0 0 0 0 0 0
1 1 1 1 1 1 1 1 1 0 0 0 0 0 -0 -0 0 0 0 1 0 0 0 0 0 0 1 1 1 1 1 2 2 2 2 0 0 0 0 0 0 0 0
1 1 1 2 1 1 2 2 2 2 2 1 0 0 0 -0 0 0 0 1 1 1 1 1 1 1 0 1 0 2 2 2 3 3 3 3 3 2 1 0 0 0 0
0 1 1 1 2 3 2 3 3 3 2 2 2 2 1 1 0 0 0 0 1 1 1 1 2 1 1 0 0 0 1 1 2 4 4 4 5 4 2 2 0 0 0
2 1 2 2 1 2 3 3 5 4 3 3 3 2 2 3 3 1 0 0 0 1 1 1 1 2 1 0 0 0 0 0 1 2 3 3 4 5 4 1 0 0 0
3 4 3 2 3 3 4 4 4 4 4 4 4 4 4 4 4 3 0 0 0 0 0 1 1 1 1 1 0 0 0 0 0 1 2 2 2 1 1 1 0 0 0
2 3 3 4 2 2 3 3 5 5 4 5 5 6 6 5 5 4 4 2 1 1 1 1 1 1 1 1 1 0 0 0 0 0 0 0 0 1 0 0 0 0 0
2 2 2 3 4 3 1 0 0 0 0 0 0 4 6 4 3 2 2 2 2 1 1 2 2 2 2 2 1 1 0 0 0 0 0 0 0 0 0 0 0 0 0
1 1 2 2 3 2 0 0 0 0 0 0 0 0 0 2 0 0 0 0 0 0 2 1 2 2 2 1 1 0 0 0 0 0 0 0 0 0 0 0 0 0 0
0 1 1 2 2 2 1 0 0 0 0 0 0 0 0 0 0 0 0 0 0 0 1 1 1 0 0 0 0 0 0 0 0 0 0 0 0 0 0 0 0 0 0
0 0 1 1 1 1 1 1 0 0 0 0 0 0 0 0 0 0 0 0 1 0 0 0 0 0 0 0 0 0 0 0 0 0 0 0 0 0 0 0 0 0 0
0 0 0 0 1 1 1 1 0 0 0 0 0 0 0 0 0 0 0 0 0 0 0 0 0 0 0 0 0 0 0 0 0 0 0 0 0 0 0 0 0 0 0
0 0 1 0 0 1 2 1 1 0 0 0 0 0 0 0 0 0 0 0 0 0 0 0 0 0 0 0 0 0 0 0 0 0 0 0 0 0 0 0 0 0 0
0 0 0 0 0 0 1 2 0 0 0 0 0 0 0 0 0 0 0 0 0 0 0 0 0 0 0 0 0 0 0 0 0 0 0 0 0 0 0 0 0 0 0
0 0 0 0 0 0 0 0 0 0 0 0 0 0 0 0 0 0 0 0 0 0 0 0 0 0 0 0 0 0 0 0 0 0 0 0 0 0 0 0 0 0 0
-0 0 0 0 0 0 0 0 0 0 0 0 0 0 0 0 0 0 0 0 0 0 0 0 0 0 0 0 0 0 0 0 0 0 0 0 0 0 0 0 0 0 0
0 0 0 0 0 0 0 0 0 0 0 0 0 0 0 0 0 0 0 0 0 0 0 0 0 0 0 0 0 0 0 0 0 0 0 0 0 0 0 0 0 0 0
0 0 0 0 0 0 0 0 0 0 0 0 0 0 0 0 0 0 0 0 0 0 0 0 0 0 0 0 0 0 0 0 0 0 0 0 0 0 0 0 0 0 0
Wind_Speed_500mb
108 109 103 91 82 77 76 72 66 61 60 57 51 48 45 43 43 42 43 43 43 39 42 46 46 45 50 51 52 50 47 47 51 46 48 45 43 40 44 45 43 42 41
107 108 103 93 87 81 78 74 70 68 64 60 59 55 53 50 43 44 51 52 53 51 44 50 55 52 52 53 56 58 57 53 55 57 49 50 53 51 47 48 51 53 53
108 108 105 100 93 87 79 75 72 72 70 67 64 67 62 61 58 56 55 50 57 56 51 47 52 58 61 58 60 64 67 65 65 68 69 61 56 57 60 63 60 61 63
105 105 107 104 96 87 79 76 75 73 73 72 72 73 73 67 62 59 58 54 52 52 52 49 45 49 57 63 65 67 67 68 73 78 80 79 74 68 71 74 72 69 69
100 103 104 98 91 82 76 75 73 73 72 72 75 78 78 80 76 70 64 62 61 59 57 56 55 53 51 52 58 64 67 68 72 76 82 86 87 87 88 84 86 82 78
97 99 93 91 86 82 76 72 71 70 69 70 72 75 81 82 80 80 77 74 71 68 68 66 66 66 64 62 62 62 65 68 74 80 84 90 90 91 88 92 95 91 91
101 96 97 93 88 81 75 75 74 72 70 71 72 73 78 80 81 81 78 81 86 86 84 81 79 76 73 73 71 73 74 77 77 78 88 89 90 87 86 91 89 94 97
98 93 89 89 85 83 79 76 74 72 73 71 70 70 71 73 73 75 76 79 82 85 84 82 80 78 77 74 74 78 79 78 79 79 86 94 94 87 90 89 89 90 90
91 89 87 82 79 78 76 72 69 70 69 68 66 65 66 64 62 61 61 66 71 74 76 77 77 76 73 71 74 80 84 85 76 76 78 79 78 78 83 95 104 95 99
83 83 80 76 72 72 65 62 59 61 59 57 58 58 56 56 52 49 50 56 66 71 73 75 78 79 75 70 72 75 83 80 75 70 62 61 64 69 72 81 94 103 106
73 71 72 70 70 69 66 64 62 62 62 63 65 64 65 64 62 56 51 54 60 63 68 70 70 66 61 56 53 56 59 52 56 67 70 74 73 76 76 74 76 85 95
59 58 59 65 66 67 68 69 68 68 69 70 71 72 72 70 65 61 56 55 54 59 64 64 63 58 50 46 48 51 48 48 54 64 68 77 82 82 84 89 78 76 82
38 43 45 47 51 55 60 62 65 66 66 68 68 69 68 67 66 61 55 52 52 57 57 57 52 46 48 50 47 46 43 45 60 65 67 70 75 85 78 72 74 67 73
26 22 20 24 30 39 48 52 56 61 62 65 65 65 65 62 60 56 52 49 47 50 52 49 47 46 45 52 50 45 46 48 51 56 62 71 75 78 77 73 64 56 55
12 16 17 19 22 25 31 41 50 55 60 63 63 61 58 57 54 41 39 40 39 40 39 46 51 50 48 44 37 38 42 48 55 60 65 65 73 71 69 60 46 35 30
8 20 26 29 30 31 36 45 51 56 60 62 60 58 56 50 42 35 31 33 34 35 44 49 48 46 42 39 40 43 48 53 53 58 61 65 66 54 35 34 33 23 24
8 13 17 29 34 36 38 39 46 52 55 58 58 56 55 49 33 32 36 38 37 42 47 44 46 43 40 40 43 48 50 48 50 52 49 41 26 18 19 23 25 21 23
14 13 13 13 18 25 32 39 39 39 41 45 48 51 53 50 41 41 42 44 43 40 40 40 38 39 41 45 48 49 45 39 36 32 26 18 10 17 28 27 6 9 22
23 22 23 23 22 24 29 35 38 36 38 41 45 45 43 44 46 48 44 40 38 38 37 38 43 45 44 40 37 34 31 28 26 25 24 18 13 19 15 2 2 5 12
33 29 21 20 20 21 29 34 39 41 41 46 48 43 42 39 48 49 43 43 43 44 44 44 38 31 30 30 28 25 22 22 22 21 22 18 15 14 16 9 11 13 16
41 37 27 28 27 27 30 34 35 44 46 49 53 44 40 39 39 40 40 40 40 38 35 31 29 28 27 26 22 17 14 12 11 10 13 16 16 17 23 22 20 21 25
49 47 38 34 32 34 33 34 39 43 50 51 53 48 44 39 36 32 28 28 27 28 28 27 24 22 23 20 16 14 10 10 13 12 14 17 19 19 19 30 29 29 32
53 53 43 44 44 42 44 42 47 50 52 52 53 52 47 42 37 34 32 28 28 29 29 29 28 27 24 20 18 17 16 13 17 18 15 20 20 22 23 25 32 39 40
50 58 55 55 52 50 53 51 49 53 51 56 59 59 54 46 40 34 33 30 28 28 27 25 25 25 25 25 24 21 19 21 24 23 23 27 28 27 29 31 31 35 37
42 60 56 45 52 54 53 52 49 56 61 61 63 59 54 49 40 37 38 38 36 33 29 23 25 23 21 18 17 13 13 13 12 14 23 31 27 27 30 32 31 32 34
34 41 44 49 47 53 54 58 66 64 56 61 61 62 60 55 50 43 43 42 37 30 22 21 17 15 13 12 12 12 14 17 10 8 9 21 30 31 33 34 33 34 38
Wind_Direction_500mb
225 227 229 233 236 236 236 232 231 230 229 228 227 225 228 234 238 237 241 245 246 247 244 242 241 241 240 241 244 249 253 259 267 271 266 268 267 266 261 261 260 261 262
227 227 230 234 236 237 237 236 233 233 231 229 229 228 225 227 236 240 245 247 248 250 253 248 244 244 246 244 246 251 256 258 264 270 273 275 277 279 270 265 262 260 261
226 229 232 234 236 237 238 239 237 235 234 232 231 232 233 233 236 244 251 251 248 250 254 258 253 250 249 249 250 252 255 260 264 270 276 275 275 275 273 271 268 260 260
228 231 232 233 236 238 239 240 241 240 237 234 234 235 237 239 241 246 248 247 247 246 251 256 260 258 255 255 255 255 257 260 262 264 269 273 274 272 271 271 269 267 262
230 232 233 234 234 236 236 238 240 241 241 240 237 238 240 241 241 243 245 246 250 252 254 256 259 262 264 264 261 261 261 263 264 266 267 270 270 270 268 271 271 272 271
230 230 231 232 232 232 233 235 238 240 242 242 241 239 240 242 244 244 245 248 252 256 259 262 263 264 266 268 269 270 270 269 270 270 273 273 276 276 277 273 273 270 270
229 228 227 229 230 230 231 234 235 237 240 242 244 244 244 245 246 247 249 251 254 257 260 263 265 266 268 270 272 273 272 270 271 272 273 273 276 277 282 282 277 274 271
229 230 230 230 232 234 235 237 240 241 243 245 247 249 251 252 252 252 253 255 256 259 261 263 264 267 269 272 275 275 273 274 273 276 277 281 283 286 283 282 281 280 278
229 232 232 232 233 236 238 241 243 246 249 249 249 250 253 255 256 259 258 257 259 261 263 266 268 270 270 271 274 275 278 279 280 281 279 281 283 282 284 284 278 274 268
231 234 235 236 239 240 242 244 246 248 251 255 257 258 260 263 263 261 260 261 265 266 267 267 269 271 274 276 278 282 284 289 295 299 294 290 286 283 283 284 282 272 269
234 233 239 242 243 245 248 249 250 253 255 256 261 264 266 268 270 268 264 263 265 270 273 274 276 278 279 281 279 279 284 295 293 292 295 293 291 290 290 291 292 289 287
237 241 241 245 249 252 255 257 256 257 259 261 264 267 269 270 271 271 270 267 268 268 270 275 277 280 282 279 277 281 287 294 290 288 283 284 288 295 300 304 304 302 300
206 220 234 245 249 251 253 256 256 258 260 263 264 267 270 273 274 275 273 270 268 266 268 271 275 274 274 277 277 281 283 283 280 281 287 291 293 296 300 302 305 311 302
150 159 183 210 229 239 246 248 250 253 256 259 263 268 272 275 276 276 275 274 270 264 264 265 263 260 261 268 272 274 280 281 283 287 289 289 291 294 298 303 309 312 290
200 210 221 231 235 241 245 246 248 252 254 257 261 266 270 275 283 286 277 270 267 266 265 255 257 255 258 259 263 270 276 275 276 278 282 288 295 298 303 304 306 309 274
276 264 260 258 256 254 253 250 249 252 255 258 262 265 270 274 275 274 269 264 254 253 249 251 254 254 250 254 260 266 266 269 276 283 286 290 292 301 307 307 301 305 265
334 318 277 260 260 262 265 266 260 255 256 258 259 262 267 271 273 268 263 259 254 252 247 251 254 253 256 256 260 264 269 272 273 276 281 288 297 300 309 304 299 281 245
285 304 314 291 271 268 271 274 269 265 263 263 259 259 261 261 254 257 259 260 252 251 251 247 247 248 252 258 261 264 267 273 276 277 280 273 245 286 311 307 238 253 246
287 284 295 299 284 286 287 279 270 260 260 260 259 256 255 253 249 253 255 251 248 246 247 250 253 254 256 254 252 256 263 265 263 261 266 272 269 283 294 339 267 220 212
283 280 283 301 311 298 286 285 273 265 261 258 255 255 255 252 245 243 243 242 244 247 251 253 251 244 241 246 248 247 248 252 256 255 240 233 246 282 230 253 238 196 184
271 265 259 274 289 301 293 283 277 257 258 255 251 244 246 249 241 238 242 243 242 242 241 236 232 233 234 230 224 221 229 237 231 231 225 222 239 250 212 213 222 213 205
255 255 247 252 264 273 284 278 274 265 249 247 241 226 220 219 221 226 228 228 228 226 223 223 219 214 205 208 213 214 235 247 229 226 227 231 239 220 215 213 216 211 211
249 247 246 253 259 266 268 272 262 260 247 236 220 210 204 197 197 203 210 212 208 205 204 197 192 194 199 209 225 238 247 246 221 224 235 229 219 223 224 220 214 213 210
241 241 245 252 251 256 262 260 251 245 231 211 203 200 200 199 198 206 215 210 198 193 190 193 202 211 218 222 228 233 231 225 229 241 234 219 225 247 239 232 226 217 210
257 243 239 236 229 230 230 223 217 200 198 198 195 194 194 195 198 207 202 193 197 201 204 210 217 220 225 224 224 236 252 240 226 237 242 233 243 240 236 226 215 212 212
232 226 224 209 196 191 188 189 187 185 186 189 188 187 185 182 181 185 185 185 192 195 200 201 195 204 216 225 232 238 221 200 212 231 257 259 246 228 219 221 228 233 232
Wind_Speed_850mb
108 109 103 91 82 77 76 72 66 61 60 57 51 48 45 43 43 42 43 43 43 39 42 46 46 45 50 51 52 50 47 47 51 46 48 45 43 40 44 45 43 42 41
107 108 103 93 87 81 78 74 70 68 64 60 59 55 53 50 43 44 51 52 53 51 44 50 55 52 52 53 56 58 57 53 55 57 49 50 53 51 47 48 51 53 53
108 108 105 100 93 87 79 75 72 72 70 67 64 67 62 61 58 56 55 50 57 56 51 47 52 58 61 58 60 64 67 65 65 68 69 61 56 57 60 63 60 61 63
105 105 107 104 96 87 79 76 75 73 73 72 72 73 73 67 62 59 58 54 52 52 52 49 45 49 57 63 65 67 67 68 73 78 80 79 74 68 71 74 72 69 69
100 103 104 98 91 82 76 75 73 73 72 72 75 78 78 80 76 70 64 62 61 59 57 56 55 53 51 52 58 64 67 68 72 76 82 86 87 87 88 84 86 82 78
97 99 93 91 86 82 76 72 71 70 69 70 72 75 81 82 80 80 77 74 71 68 68 66 66 66 64 62 62 62 65 68 74 80 84 90 90 91 88 92 95 91 91
101 96 97 93 88 81 75 75 74 72 70 71 72 73 78 80 81 81 78 81 86 86 84 81 79 76 73 73 71 73 74 77 77 78 88 89 90 87 86 91 89 94 97
98 93 89 89 85 83 79 76 74 72 73 71 70 70 71 73 73 75 76 79 82 85 84 82 80 78 77 74 74 78 79 78 79 79 86 94 94 87 90 89 89 90 90
91 89 87 82 79 78 76 72 69 70 69 68 66 65 66 64 62 61 61 66 71 74 76 77 77 76 73 71 74 80 84 85 76 76 78 79 78 78 83 95 104 95 99
83 83 80 76 72 72 65 62 59 61 59 57 58 58 56 56 52 49 50 56 66 71 73 75 78 79 75 70 72 75 83 80 75 70 62 61 64 69 72 81 94 103 106
73 71 72 70 70 69 66 64 62 62 62 63 65 64 65 64 62 56 51 54 60 63 68 70 70 66 61 56 53 56 59 52 56 67 70 74 73 76 76 74 76 85 95
59 58 59 65 66 67 68 69 68 68 69 70 71 72 72 70 65 61 56 55 54 59 64 64 63 58 50 46 48 51 48 48 54 64 68 77 82 82 84 89 78 76 82
38 43 45 47 51 55 60 62 65 66 66 68 68 69 68 67 66 61 55 52 52 57 57 57 52 46 48 50 47 46 43 45 60 65 67 70 75 85 78 72 74 67 73
26 22 20 24 30 39 48 52 56 61 62 65 65 65 65 62 60 56 52 49 47 50 52 49 47 46 45 52 50 45 46 48 51 56 62 71 75 78 77 73 64 56 55
12 16 17 19 22 25 31 41 50 55 60 63 63 61 58 57 54 41 39 40 39 40 39 46 51 50 48 44 37 38 42 48 55 60 65 65 73 71 69 60 46 35 30
8 20 26 29 30 31 36 45 51 56 60 62 60 58 56 50 42 35 31 33 34 35 44 49 48 46 42 39 40 43 48 53 53 58 61 65 66 54 35 34 33 23 24
8 13 17 29 34 36 38 39 46 52 55 58 58 56 55 49 33 32 36 38 37 42 47 44 46 43 40 40 43 48 50 48 50 52 49 41 26 18 19 23 25 21 23
14 13 13 13 18 25 32 39 39 39 41 45 48 51 53 50 41 41 42 44 43 40 40 40 38 39 41 45 48 49 45 39 36 32 26 18 10 17 28 27 6 9 22
23 22 23 23 22 24 29 35 38 36 38 41 45 45 43 44 46 48 44 40 38 38 37 38 43 45 44 40 37 34 31 28 26 25 24 18 13 19 15 2 2 5 12
33 29 21 20 20 21 29 34 39 41 41 46 48 43 42 39 48 49 43 43 43 44 44 44 38 31 30 30 28 25 22 22 22 21 22 18 15 14 16 9 11 13 16
41 37 27 28 27 27 30 34 35 44 46 49 53 44 40 39 39 40 40 40 40 38 35 31 29 28 27 26 22 17 14 12 11 10 13 16 16 17 23 22 20 21 25
49 47 38 34 32 34 33 34 39 43 50 51 53 48 44 39 36 32 28 28 27 28 28 27 24 22 23 20 16 14 10 10 13 12 14 17 19 19 19 30 29 29 32
53 53 43 44 44 42 44 42 47 50 52 52 53 52 47 42 37 34 32 28 28 29 29 29 28 27 24 20 18 17 16 13 17 18 15 20 20 22 23 25 32 39 40
50 58 55 55 52 50 53 51 49 53 51 56 59 59 54 46 40 34 33 30 28 28 27 25 25 25 25 25 24 21 19 21 24 23 23 27 28 27 29 31 31 35 37
42 60 56 45 52 54 53 52 49 56 61 61 63 59 54 49 40 37 38 38 36 33 29 23 25 23 21 18 17 13 13 13 12 14 23 31 27 27 30 32 31 32 34
34 41 44 49 47 53 54 58 66 64 56 61 61 62 60 55 50 43 43 42 37 30 22 21 17 15 13 12 12 12 14 17 10 8 9 21 30 31 33 34 33 34 38
Wind_Direction_850mb
225 227 229 233 236 236 236 232 231 230 229 228 227 225 228 234 238 237 241 245 246 247 244 242 241 241 240 241 244 249 253 259 267 271 266 268 267 266 261 261 260 261 262
227 227 230 234 236 237 237 236 233 233 231 229 229 228 225 227 236 240 245 247 248 250 253 248 244 244 246 244 246 251 256 258 264 270 273 275 277 279 270 265 262 260 261
226 229 232 234 236 237 238 239 237 235 234 232 231 232 233 233 236 244 251 251 248 250 254 258 253 250 249 249 250 252 255 260 264 270 276 275 275 275 273 271 268 260 260
228 231 232 233 236 238 239 240 241 240 237 234 234 235 237 239 241 246 248 247 247 246 251 256 260 258 255 255 255 255 257 260 262 264 269 273 274 272 271 271 269 267 262
230 232 233 234 234 236 236 238 240 241 241 240 237 238 240 241 241 243 245 246 250 252 254 256 259 262 264 264 261 261 261 263 264 266 267 270 270 270 268 271 271 272 271
230 230 231 232 232 232 233 235 238 240 242 242 241 239 240 242 244 244 245 248 252 256 259 262 263 264 266 268 269 270 270 269 270 270 273 273 276 276 277 273 273 270 270
229 228 227 229 230 230 231 234 235 237 240 242 244 244 244 245 246 247 249 251 254 257 260 263 265 266 268 270 272 273 272 270 271 272 273 273 276 277 282 282 277 274 271
229 230 230 230 232 234 235 237 240 241 243 245 247 249 251 252 252 252 253 255 256 259 261 263 264 267 269 272 275 275 273 274 273 276 277 281 283 286 283 282 281 280 278
229 232 232 232 233 236 238 241 243 246 249 249 249 250 253 255 256 259 258 257 259 261 263 266 268 270 270 271 274 275 278 279 280 281 279 281 283 282 284 284 278 274 268
231 234 235 236 239 240 242 244 246 248 251 255 257 258 260 263 263 261 260 261 265 266 267 267 269 271 274 276 278 282 284 289 295 299 294 290 286 283 283 284 282 272 269
234 233 239 242 243 245 248 249 250 253 255 256 261 264 266 268 270 268 264 263 265 270 273 274 276 278 279 281 279 279 284 295 293 292 295 293 291 290 290 291 292 289 287
237 241 241 245 249 252 255 257 256 257 259 261 264 267 269 270 271 271 270 267 268 268 270 275 277 280 282 279 277 281 287 294 290 288 283 284 288 295 300 304 304 302 300
206 220 234 245 249 251 253 256 256 258 260 263 264 267 270 273 274 275 273 270 268 266 268 271 275 274 274 277 277 281 283 283 280 281 287 291 293 296 300 302 305 311 302
150 159 183 210 229 239 246 248 250 253 256 259 263 268 272 275 276 276 275 274 270 264 264 265 263 260 261 268 272 274 280 281 283 287 289 289 291 294 298 303 309 312 290
200 210 221 231 235 241 245 246 248 252 254 257 261 266 270 275 283 286 277 270 267 266 265 255 257 255 258 259 263 270 276 275 276 278 282 288 295 298 303 304 306 309 274
276 264 260 258 256 254 253 250 249 252 255 258 262 265 270 274 275 274 269 264 254 253 249 251 254 254 250 254 260 266 266 269 276 283 286 290 292 301 307 307 301 305 265
334 318 277 260 260 262 265 266 260 255 256 258 259 262 267 271 273 268 263 259 254 252 247 251 254 253 256 256 260 264 269 272 273 276 281 288 297 300 309 304 299 281 245
285 304 314 291 271 268 271 274 269 265 263 263 259 259 261 261 254 257 259 260 252 251 251 247 247 248 252 258 261 264 267 273 276 277 280 273 245 286 311 307 238 253 246
287 284 295 299 284 286 287 279 270 260 260 260 259 256 255 253 249 253 255 251 248 246 247 250 253 254 256 254 252 256 263 265 263 261 266 272 269 283 294 339 267 220 212
283 280 283 301 311 298 286 285 273 265 261 258 255 255 255 252 245 243 243 242 244 247 251 253 251 244 241 246 248 247 248 252 256 255 240 233 246 282 230 253 238 196 184
271 265 259 274 289 301 293 283 277 257 258 255 251 244 246 249 241 238 242 243 242 242 241 236 232 233 234 230 224 221 229 237 231 231 225 222 239 250 212 213 222 213 205
255 255 247 252 264 273 284 278 274 265 249 247 241 226 220 219 221 226 228 228 228 226 223 223 219 214 205 208 213 214 235 247 229 226 227 231 239 220 215 213 216 211 211
249 247 246 253 259 266 268 272 262 260 247 236 220 210 204 197 197 203 210 212 208 205 204 197 192 194 199 209 225 238 247 246 221 224 235 229 219 223 224 220 214 213 210
241 241 245 252 251 256 262 260 251 245 231 211 203 200 200 199 198 206 215 210 198 193 190 193 202 211 218 222 228 233 231 225 229 241 234 219 225 247 239 232 226 217 210
257 243 239 236 229 230 230 223 217 200 198 198 195 194 194 195 198 207 202 193 197 201 204 210 217 220 225 224 224 236 252 240 226 237 242 233 243 240 236 226 215 212 212
232 226 224 209 196 191 188 189 187 185 186 189 188 187 185 182 181 185 185 185 192 195 200 201 195 204 216 225 232 238 221 200 212 231 257 259 246 228 219 221 228 233 232